CW3065 Weather Reports


time (UTC)temp
C
wind
direction
speed
KPH
gust
KPH
rain 1hr
cm
rain 24hr
cm
rain mn
cm
humidity
%
barometer
mb
20260510144504 9 17 0.0 3.2 0.00 0.23 0.08 60 1013.3
20260510144004 8 35 0.0 4.8 0.00 0.23 0.08 65 1013.2
20260510143005 7 23 4.8 8.0 0.00 0.23 0.08 76 1013.3
20260510142504 6 166 0.0 3.2 0.00 0.23 0.08 69 1013.4
20260510141005 6 175 1.6 3.2 0.00 0.23 0.08 74 1013.4
20260510140004 5 176 4.8 4.8 0.00 0.23 0.08 76 1013.4
20260510135505 5 165 3.2 8.0 0.00 0.23 0.08 78 1013.4
20260510135004 5 213 3.2 4.8 0.00 0.23 0.08 79 1013.4
20260510134504 5 223 1.6 4.8 0.00 0.23 0.08 81 1013.4
20260510133504 4 212 1.6 4.8 0.00 0.23 0.08 85 1013.4
20260510133004 4 222 4.8 4.8 0.00 0.23 0.08 87 1013.4
20260510131504 3 215 4.8 8.0 0.00 0.23 0.08 89 1013.5
20260510131004 3 202 4.8 8.0 0.00 0.23 0.08 90 1013.4
20260510130505 2 247 6.4 9.7 0.00 0.23 0.08 91 1013.4
20260510130004 2 222 4.8 4.8 0.00 0.23 0.08 91 1013.3
20260510125504 2 233 4.8 9.7 0.00 0.23 0.08 91 1013.2
20260510125004 2 219 4.8 9.7 0.00 0.23 0.08 91 1013.2
20260510124505 2 220 3.2 4.8 0.00 0.23 0.08 92 1013.2
20260510123505 2 228 1.6 4.8 0.00 0.23 0.08 93 1013.3
20260510123004 2 228 1.6 4.8 0.00 0.23 0.08 93 1013.3
20260510122504 2 265 0.0 0.0 0.00 0.23 0.08 93 1013.3
20260510122005 2 265 0.0 3.2 0.00 0.23 0.08 94 1013.3
20260510121504 2 265 3.2 4.8 0.00 0.23 0.08 94 1013.2
20260510120505 2 235 4.8 9.7 0.00 0.23 0.08 94 1013.2
20260510120004 2 243 3.2 4.8 0.00 0.23 0.08 95 1013.2
20260510115504 2 246 4.8 8.0 0.00 0.23 0.08 94 1013.2
20260510115004 2 329 3.2 4.8 0.00 0.23 0.08 94 1012.9
20260510114004 2 5 1.6 4.8 0.00 0.23 0.08 93 1012.8
20260510113505 2 7 0.0 4.8 0.00 0.23 0.08 93 1012.8
20260510113005 2 7 0.0 0.0 0.00 0.23 0.08 93 1012.8
20260510112505 2 7 1.6 3.2 0.00 0.23 0.08 94 1012.8
20260510112004 2 344 3.2 4.8 0.00 0.23 0.08 94 1012.7
20260510111504 2 344 1.6 4.8 0.00 0.23 0.08 94 1012.6
20260510111004 2 344 0.0 0.0 0.00 0.23 0.08 94 1012.6
20260510110504 2 344 0.0 0.0 0.00 0.23 0.08 94 1012.4
20260510110005 2 344 0.0 4.8 0.00 0.23 0.08 94 1012.3
20260510105505 2 344 3.2 4.8 0.00 0.23 0.08 94 1012.2
20260510105004 2 358 0.0 4.8 0.00 0.23 0.08 94 1012.1
20260510104505 2 11 0.0 0.0 0.00 0.23 0.08 94 1012.1
20260510104004 2 11 0.0 0.0 0.00 0.23 0.08 94 1012.1
20260510103005 2 11 0.0 0.0 0.00 0.23 0.08 94 1012.1
20260510101504 2 11 0.0 0.0 0.00 0.23 0.08 93 1012.2
20260510101004 2 338 0.0 3.2 0.00 0.23 0.08 93 1012.2
20260510100505 2 264 0.0 0.0 0.00 0.23 0.08 93 1012.2
20260510100004 2 264 0.0 4.8 0.00 0.23 0.08 93 1012.2
20260510095504 2 264 3.2 4.8 0.00 0.23 0.08 93 1012.1
20260510095005 2 264 3.2 4.8 0.00 0.23 0.08 93 1011.7
20260510094504 2 342 1.6 4.8 0.00 0.23 0.08 93 1011.6
20260510094004 2 342 3.2 4.8 0.00 0.23 0.08 92 1011.6
20260510093504 2 342 3.2 4.8 0.00 0.23 0.08 92 1011.6
20260510093004 2 342 3.2 4.8 0.00 0.23 0.08 91 1011.4
20260510092505 2 58 0.0 0.0 0.00 0.23 0.08 91 1011.4
20260510092004 2 58 0.0 0.0 0.00 0.23 0.08 91 1011.3
20260510091505 3 78 0.0 0.0 0.00 0.23 0.08 91 1011.1
20260510091004 3 84 0.0 0.0 0.00 0.23 0.08 92 1011.0
20260510090504 3 84 0.0 0.0 0.00 0.23 0.08 92 1011.0
20260510090004 3 80 1.6 3.2 0.00 0.23 0.08 92 1011.0
20260510085504 3 354 0.0 0.0 0.00 0.23 0.08 92 1011.0
20260510085004 3 354 0.0 0.0 0.00 0.23 0.08 92 1011.0
20260510084505 3 354 0.0 0.0 0.00 0.23 0.08 92 1011.0
20260510084004 3 354 0.0 0.0 0.00 0.23 0.08 93 1011.0
20260510083504 3 354 1.6 3.2 0.00 0.23 0.08 92 1011.0
20260510083004 3 354 0.0 0.0 0.00 0.23 0.08 92 1011.0
20260510082504 3 354 0.0 0.0 0.00 0.23 0.08 92 1010.9
20260510082004 3 354 0.0 0.0 0.00 0.23 0.08 92 1010.9
20260510081504 3 354 0.0 0.0 0.00 0.23 0.08 92 1010.9
20260510081005 3 354 0.0 0.0 0.00 0.23 0.08 92 1010.9
20260510080504 3 354 0.0 0.0 0.00 0.23 0.08 93 1010.9
20260510080004 3 354 0.0 0.0 0.00 0.23 0.08 92 1010.9
20260510075504 3 354 0.0 3.2 0.00 0.23 0.08 92 1010.9
20260510074504 3 354 1.6 4.8 0.00 0.23 0.08 92 1010.9
20260510074004 3 354 4.8 9.7 0.00 0.23 0.08 92 1010.9
20260510073005 3 81 3.2 8.0 0.00 0.23 0.08 92 1010.8
20260510072004 3 17 9.7 14.5 0.00 0.23 0.08 92 1010.9
20260510070504 3 6 6.4 9.7 0.08 0.23 0.08 92 1011.0
20260510070004 3 27 4.8 9.7 0.08 0.23 0.08 91 1011.0
20260510065504 3 36 4.8 9.7 0.05 0.23 0.08 91 1011.0
20260510065004 3 0 8.0 9.7 0.08 0.23 0.08 91 1011.1
20260510064504 3 13 6.4 11.3 0.10 0.23 0.08 91 1011.1
20260510064004 3 1 4.8 9.7 0.13 0.23 0.08 91 1011.1
20260510063005 3 357 8.0 9.7 0.00 0.23 0.08 90 1011.0
20260510062505 3 9 6.4 9.7 0.00 0.23 0.08 90 1011.0
20260510062004 3 1 6.4 9.7 0.00 0.25 0.08 90 1011.1
20260510061505 3 349 8.0 11.3 0.15 0.23 0.05 89 1011.4
20260510061004 3 348 9.7 14.5 0.13 0.20 0.03 90 1011.4
20260510060505 3 348 9.7 12.9 0.10 0.18 0.00 90 1011.3
20260510060005 3 356 6.4 9.7 0.10 0.18 0.00 89 1011.1
20260510055504 3 52 3.2 4.8 0.10 0.18 0.18 88 1011.0
20260510055004 3 118 3.2 4.8 0.08 0.15 0.15 88 1011.0
20260510054504 3 118 4.8 4.8 0.05 0.13 0.13 87 1011.1
20260510054004 3 107 4.8 8.0 0.03 0.10 0.10 86 1011.4
20260510053505 4 136 4.8 8.0 0.03 0.10 0.10 86 1011.5
20260510053004 4 122 8.0 11.3 0.03 0.08 0.08 86 1011.4
20260510052504 4 138 11.3 12.9 0.03 0.08 0.08 85 1011.2
20260510052005 4 138 9.7 14.5 0.03 0.08 0.08 85 1011.2
20260510051504 4 143 4.8 11.3 0.05 0.08 0.08 85 1011.1
20260510051004 4 135 3.2 9.7 0.05 0.08 0.08 85 1011.1
20260510050505 4 142 9.7 19.3 0.05 0.08 0.08 85 1010.9
20260510050005 5 141 8.0 14.5 0.08 0.08 0.08 85 1010.9
20260510045004 5 128 11.3 19.3 0.08 0.08 0.08 85 1010.6
20260510044005 5 115 6.4 12.9 0.08 0.08 0.08 88 1010.7
20260510043504 5 129 11.3 19.3 0.08 0.08 0.08 87 1010.7
20260510043005 5 128 8.0 11.3 0.05 0.05 0.05 88 1010.6
20260510042504 5 123 6.4 9.7 0.05 0.05 0.05 87 1010.7
20260510042004 5 102 8.0 19.3 0.05 0.05 0.05 86 1010.7
20260510041004 5 117 14.5 22.5 0.03 0.03 0.03 84 1010.7
20260510040505 6 118 12.9 20.9 0.03 0.03 0.03 82 1010.5
20260510040004 6 110 11.3 19.3 0.00 0.00 0.00 81 1010.6
20260510035504 6 119 6.4 11.3 0.00 0.00 0.00 79 1010.6
20260510035005 6 136 8.0 16.1 0.00 0.00 0.00 78 1010.6
20260510034504 6 113 8.0 20.9 0.00 0.00 0.00 76 1010.3
20260510034005 6 95 4.8 14.5 0.00 0.00 0.00 75 1010.1
20260510033505 6 40 4.8 11.3 0.00 0.00 0.00 75 1010.1
20260510033005 6 91 4.8 9.7 0.00 0.00 0.00 73 1009.9
20260510032504 7 90 6.4 11.3 0.00 0.00 0.00 73 1009.7
20260510032004 7 132 4.8 8.0 0.00 0.00 0.00 71 1009.7
20260510031504 7 135 6.4 12.9 0.00 0.00 0.00 71 1009.5
20260510031005 7 116 8.0 14.5 0.00 0.00 0.00 70 1009.1
20260510030005 7 125 14.5 19.3 0.00 0.00 0.00 69 1009.0
20260510025504 7 148 12.9 19.3 0.00 0.00 0.00 68 1009.1
20260510025005 7 129 8.0 16.1 0.00 0.00 0.00 67 1009.3
20260510024504 7 101 14.5 20.9 0.00 0.00 0.00 67 1009.3
20260510024004 7 151 12.9 20.9 0.00 0.00 0.00 67 1008.5
20260510023504 7 118 11.3 19.3 0.00 0.00 0.00 69 1008.1
20260510023004 7 129 12.9 22.5 0.00 0.00 0.00 70 1007.6
20260510022504 7 126 16.1 25.7 0.00 0.00 0.00 72 1007.4
20260510022004 6 141 16.1 27.4 0.00 0.00 0.00 73 1007.0
20260510021504 7 115 11.3 20.9 0.00 0.00 0.00 73 1006.7
20260510021005 7 89 12.9 24.1 0.00 0.00 0.00 72 1006.3
20260510020505 7 87 14.5 22.5 0.00 0.00 0.00 71 1006.2
20260510020005 7 88 19.3 27.4 0.00 0.00 0.00 71 1006.2
20260510015504 7 79 19.3 25.7 0.00 0.00 0.00 70 1006.2
20260510015004 7 89 19.3 29.0 0.00 0.00 0.00 69 1005.9
20260510014504 7 78 19.3 27.4 0.00 0.00 0.00 68 1006.1
20260510014004 7 49 19.3 32.2 0.00 0.00 0.00 67 1006.1
20260510013504 8 71 29.0 40.2 0.00 0.00 0.00 66 1005.5
20260510013005 8 95 25.7 37.0 0.00 0.00 0.00 64 1004.9
20260510012504 9 95 16.1 38.6 0.00 0.00 0.00 62 1005.0
20260510012004 10 56 16.1 24.1 0.00 0.00 0.00 60 1004.9
20260510011504 10 0 19.3 29.0 0.00 0.00 0.00 59 1004.9
20260510011004 10 52 19.3 29.0 0.00 0.00 0.00 57 1004.8
20260510010504 10 80 16.1 29.0 0.00 0.00 0.00 55 1004.6
20260510010004 11 55 14.5 27.4 0.00 0.00 0.00 53 1004.6
20260510005504 11 25 16.1 27.4 0.00 0.00 0.00 52 1004.5
20260510005004 12 16 12.9 22.5 0.00 0.00 0.00 49 1004.6
20260510004504 12 328 4.8 29.0 0.00 0.00 0.00 50 1004.6
20260510004005 12 82 16.1 32.2 0.00 0.00 0.00 49 1004.4
20260510003504 12 86 20.9 32.2 0.00 0.00 0.00 46 1004.3
20260510003004 14 63 16.1 25.7 0.00 0.00 0.00 42 1004.4
20260510002505 16 112 9.7 19.3 0.00 0.00 0.00 37 1004.6
20260510002005 17 2 3.2 16.1 0.00 0.00 0.00 20 1004.3
20260510001504 16 224 11.3 19.3 0.00 0.00 0.00 18 1004.3
20260510001005 16 232 11.3 24.1 0.00 0.00 0.00 18 1004.3
20260510000504 16 260 8.0 25.7 0.00 0.00 0.00 19 1004.3
20260509235504 16 222 16.1 24.1 0.00 0.00 0.00 16 1004.1
20260509235005 17 220 8.0 20.9 0.00 0.00 0.00 18 1004.1
20260509234504 17 253 9.7 27.4 0.00 0.00 0.00 19 1004.2
20260509234004 17 242 14.5 32.2 0.00 0.00 0.00 18 1004.1
20260509233504 17 255 12.9 25.7 0.00 0.00 0.00 17 1004.1
20260509233004 17 251 8.0 25.7 0.00 0.00 0.00 17 1004.0
20260509232504 18 260 14.5 29.0 0.00 0.00 0.00 17 1003.8
20260509232004 19 259 11.3 25.7 0.00 0.00 0.00 16 1003.6
20260509231504 18 287 8.0 20.9 0.00 0.00 0.00 17 1003.6
20260509231004 18 260 9.7 32.2 0.00 0.00 0.00 18 1003.6
20260509230504 18 295 17.7 29.0 0.00 0.00 0.00 17 1003.6
20260509230004 18 235 17.7 29.0 0.00 0.00 0.00 16 1003.6
20260509225504 19 270 4.8 24.1 0.00 0.00 0.00 15 1003.5
20260509225004 19 288 19.3 37.0 0.00 0.00 0.00 16 1003.4
20260509224504 19 304 16.1 35.4 0.00 0.00 0.00 16 1003.2
20260509224005 18 285 16.1 32.2 0.00 0.00 0.00 15 1003.4
20260509223504 18 254 19.3 37.0 0.00 0.00 0.00 17 1003.2
20260509223005 18 257 20.9 35.4 0.00 0.00 0.00 15 1003.0
20260509222504 18 261 17.7 37.0 0.00 0.00 0.00 15 1003.2
20260509222004 18 289 14.5 32.2 0.00 0.00 0.00 15 1003.0
20260509221505 18 248 11.3 25.7 0.00 0.00 0.00 16 1003.0
20260509220504 18 235 9.7 24.1 0.00 0.00 0.00 18 1003.1
20260509220004 18 274 16.1 33.8 0.00 0.00 0.00 18 1003.5
20260509215504 18 255 12.9 35.4 0.00 0.00 0.00 17 1003.6
20260509215004 18 249 19.3 35.4 0.00 0.00 0.00 15 1003.6
20260509214004 18 245 20.9 33.8 0.00 0.00 0.00 17 1003.5
20260509213005 19 230 12.9 22.5 0.00 0.00 0.00 16 1003.5
20260509212504 18 227 9.7 33.8 0.00 0.00 0.00 19 1003.5
20260509212004 18 228 6.4 19.3 0.00 0.00 0.00 17 1003.5
20260509211505 18 182 6.4 29.0 0.00 0.00 0.00 21 1003.6
20260509211004 18 227 14.5 27.4 0.00 0.00 0.00 17 1003.6
20260509210004 18 216 9.7 25.7 0.00 0.00 0.00 14 1003.6
20260509205504 18 269 11.3 27.4 0.00 0.00 0.00 19 1003.7
20260509205004 18 283 12.9 27.4 0.00 0.00 0.00 17 1003.6
20260509204504 18 251 11.3 22.5 0.00 0.00 0.00 16 1003.6
20260509204004 18 314 8.0 25.7 0.00 0.00 0.00 17 1003.6
20260509203504 18 249 14.5 25.7 0.00 0.00 0.00 18 1003.6
20260509202004 20 254 4.8 24.1 0.00 0.00 0.00 17 1003.5
20260509201504 20 284 16.1 32.2 0.00 0.00 0.00 17 1003.6
20260509201005 19 260 6.4 19.3 0.00 0.00 0.00 21 1003.5
20260509200004 19 311 16.1 25.7 0.00 0.00 0.00 20 1003.5
20260509195505 18 341 4.8 11.3 0.00 0.00 0.00 19 1003.8
20260509195004 18 253 9.7 22.5 0.00 0.00 0.00 18 1004.3
20260509194504 18 277 14.5 32.2 0.00 0.00 0.00 18 1004.5
20260509194004 18 256 19.3 32.2 0.00 0.00 0.00 19 1004.4
20260509193504 17 237 14.5 32.2 0.00 0.00 0.00 19 1004.5
20260509193004 18 279 16.1 27.4 0.00 0.00 0.00 18 1004.3
20260509192504 17 257 16.1 32.2 0.00 0.00 0.00 18 1004.1
20260509192004 17 199 16.1 27.4 0.00 0.00 0.00 20 1004.2
20260509191504 17 238 9.7 25.7 0.00 0.00 0.00 19 1004.3
20260509191004 17 246 19.3 32.2 0.00 0.00 0.00 18 1004.4
20260509190504 17 332 14.5 27.4 0.00 0.00 0.00 17 1004.2
20260509190005 17 275 14.5 33.8 0.00 0.00 0.00 20 1004.2
20260509185504 17 264 11.3 24.1 0.00 0.00 0.00 18 1004.2
20260509185004 17 270 9.7 25.7 0.00 0.00 0.00 19 1004.1
20260509184504 17 269 9.7 24.1 0.00 0.00 0.00 18 1004.3
20260509184004 17 225 12.9 22.5 0.00 0.00 0.00 17 1004.2
20260509183504 16 224 1.6 22.5 0.00 0.00 0.00 20 1004.3
20260509183004 16 231 19.3 38.6 0.00 0.00 0.00 18 1004.5
20260509182504 16 213 20.9 33.8 0.00 0.00 0.00 19 1004.3
20260509182004 16 246 16.1 33.8 0.00 0.00 0.00 20 1004.2
20260509180504 16 236 9.7 16.1 0.00 0.00 0.00 20 1004.3
20260509180004 17 242 8.0 19.3 0.00 0.00 0.00 18 1004.2
20260509175504 16 206 14.5 25.7 0.00 0.00 0.00 21 1004.2
20260509174505 16 259 8.0 20.9 0.00 0.00 0.00 20 1004.3
20260509174004 16 215 9.7 19.3 0.00 0.00 0.00 20 1004.4
20260509173505 16 251 14.5 27.4 0.00 0.00 0.00 20 1004.6
20260509172504 16 259 14.5 27.4 0.00 0.00 0.00 20 1004.6
20260509171504 15 248 14.5 29.0 0.00 0.00 0.00 23 1004.5
20260509171004 15 247 20.9 32.2 0.00 0.00 0.00 18 1004.4
20260509170505 15 240 14.5 29.0 0.00 0.00 0.00 23 1004.2
20260509165504 15 245 20.9 32.2 0.00 0.00 0.00 20 1004.4
20260509165004 15 243 17.7 32.2 0.00 0.00 0.00 22 1004.6
20260509164505 15 255 12.9 24.1 0.00 0.00 0.00 21 1004.7
20260509164004 15 203 16.1 32.2 0.00 0.00 0.00 21 1004.6
20260509163505 15 252 14.5 32.2 0.00 0.00 0.00 20 1004.5
20260509163005 15 221 14.5 24.1 0.00 0.00 0.00 20 1004.5
20260509162504 15 223 14.5 25.7 0.00 0.00 0.00 22 1004.5
20260509162004 15 225 9.7 22.5 0.00 0.00 0.00 22 1004.6
20260509161505 15 206 8.0 19.3 0.00 0.00 0.00 22 1004.6
20260509161004 15 250 9.7 24.1 0.00 0.00 0.00 22 1004.6
20260509160504 15 249 14.5 22.5 0.00 0.00 0.00 20 1004.6
20260509155504 15 240 8.0 16.1 0.00 0.00 0.00 21 1004.5
20260509155004 15 277 9.7 20.9 0.00 0.00 0.00 20 1004.4
20260509154505 15 225 8.0 16.1 0.00 0.00 0.00 22 1004.3
20260509154004 15 246 8.0 19.3 0.00 0.00 0.00 22 1004.2
20260509153504 15 219 4.8 19.3 0.00 0.00 0.00 20 1004.2
20260509152504 14 236 3.2 16.1 0.00 0.00 0.00 21 1004.6
20260509152004 14 248 9.7 20.9 0.00 0.00 0.00 21 1004.5
20260509151505 14 242 4.8 9.7 0.00 0.00 0.00 22 1004.6
20260509151004 14 299 4.8 14.5 0.00 0.00 0.00 22 1004.7
20260509150505 14 270 4.8 16.1 0.00 0.00 0.00 23 1004.8
20260509150004 13 291 8.0 16.1 0.00 0.00 0.00 25 1004.6